This is the latest recevied weather packets stored in our database for station/object OE6CUD-6. If no packets are shown the sender has not sent any weather packets the latest 10 day(s).
| Time | Temp. | Humidity | Pressure | Rain* | Wind** | Luminosity | Snow |
|---|---|---|---|---|---|---|---|
| 1777710789 | 20° C | 50% | 1024.3 hPa | 0 mm | - | 241 W/m² | - |
| 1777709888 | 20.56° C | 50% | 1024.5 hPa | 0 mm | - | 635 W/m² | - |
| 1777708241 | 20° C | 55% | 1024.7 hPa | 0 mm | - | 454 W/m² | - |
| 1777706268 | 18.33° C | 58% | 1024.6 hPa | 0 mm | - | 441 W/m² | - |
| 1777705967 | 17.22° C | 60% | 1024.4 hPa | 0 mm | - | 445 W/m² | - |
| 1777702923 | 12.78° C | 74% | 1024 hPa | 0 mm | - | 33 W/m² | - |
| 1777700793 | 10.56° C | 83% | 1023.9 hPa | 0 mm | - | 30 W/m² | - |
| 1777700492 | 10.56° C | 83% | 1023.8 hPa | 0 mm | - | 28 W/m² | - |
| 1777697647 | 6.11° C | 97% | 1023.1 hPa | 0 mm | - | 23 W/m² | - |
| 1777697193 | 6.11° C | 97% | 1023 hPa | 0 mm | - | 35 W/m² | - |
| 1777696727 | 5.56° C | 96% | 1023 hPa | 0 mm | - | 16 W/m² | - |
| 1777694136 | 5.56° C | 94% | 1022.7 hPa | 0 mm | - | 0 W/m² | - |
| 1777692026 | 6.11° C | 91% | 1022.7 hPa | 0 mm | - | 0 W/m² | - |
| 1777692021 | 6.11° C | 92% | 1022.7 hPa | 0 mm | - | 0 W/m² | - |
| 1777691385 | 6.11° C | 91% | 1022.8 hPa | 0 mm | - | 0 W/m² | - |
| 1777691238 | 6.11° C | 90% | 1022.8 hPa | 0 mm | - | 0 W/m² | - |
| 1777688363 | 6.67° C | 89% | 1023.1 hPa | 0 mm | - | 0 W/m² | - |
| 1777688059 | 6.67° C | 89% | 1023.2 hPa | 0 mm | - | 0 W/m² | - |
| 1777686848 | 6.67° C | 88% | 1023.4 hPa | 0 mm | - | 0 W/m² | - |
| 1777685941 | 7.22° C | 87% | 1023.4 hPa | 0 mm | - | 0 W/m² | - |
| 1777685642 | 7.22° C | 87% | 1023.4 hPa | 0 mm | - | 0 W/m² | - |
| 1777678351 | 8.33° C | 86% | 1024.2 hPa | 0 mm | - | 0 W/m² | - |
| 1777677129 | 8.33° C | 87% | 1024.3 hPa | 0 mm | - | 0 W/m² | - |
| 1777676389 | 8.33° C | 85% | 1024.5 hPa | 0 mm | - | 0 W/m² | - |
| 1777674098 | 8.89° C | 84% | 1024.7 hPa | 0 mm | - | 0 W/m² | - |
* Rain latest hour (hover to see other rain measurements)
** Current wind speed in m/s (hover to see current wind gust speed)